Weather History for KBLF - January, 2014

Change the Weather History Date:

Tuesday, January 28, 2014

  Actual Average Record
Temperature  
Mean Temperature 11 °F 35 °F  
Max Temperature 16 °F 43 °F 63 °F (1989)
Min Temperature 6 °F 27 °F -8 °F (1963)
Degree Days  
Heating Degree Days 54 30  
Month to date heating degree days 993 866  
Since 1 July heating degree days 2690 2631  
Cooling Degree Days 0 0  
Month to date cooling degree days 0 0  
Year to date cooling degree days 0 0  
Moisture  
Dew Point 1 °F    
Average Humidity 63    
Maximum Humidity 76    
Minimum Humidity 50    
Precipitation  
Precipitation 0.03 in 0.10 in 1.41 in (1998)
Month to date precipitation 1.57 2.63  
Year to date precipitation 1.57 2.63  
Snow  
Snow 1.90 in - - ()
Month to date snowfall 15.9  
Since 1 July snowfall 20.2  
Snow Depth 6.00 in    
Sea Level Pressure  
Sea Level Pressure 30.16 in    
Wind  
Wind Speed 4 mph (NW)    
Max Wind Speed 12 mph    
Max Gust Speed 17 mph    
Visibility 5 miles    
Events Snow    
T = Trace of Precipitation, MM = Missing Value Source: NWS Daily Summary

Daily Weather History Graph

Daily Weather History Graph

Search for Another Location

Airport or City:

Trip Planner

Search our weather history database for the weather conditions in past years. The results will help you decide how hot, cold, wet, or windy it might be!

Date:

Astronomy

Jan. 28, 2014 Rise Set
Actual Time 7:31 AM EST 5:45 PM EST
Civil Twilight 7:03 AM EST 6:12 PM EST
Nautical Twilight 6:31 AM EST 6:44 PM EST
Astronomical Twilight 6:01 AM EST 7:14 PM EST
Moon 5:10 AM EST (1/28) 3:34 PM EST (1/28)
Length of Visible Light 11h 09m
Length of Day
10h 13m
Waning Crescent, 7% of the Moon is Illuminated
Jan 28
Waning Crescent
Jan 30
New
Feb 6
First Quarter
Feb 14
Full
Feb 22
Last Quarter

Hourly Weather History & Observations

Time (EST) Temp. Windchill Dew Point Humidity Pressure Visibility Wind Dir Wind Speed Gust Speed Precip Events Conditions
12:52 AM 10.0 °F -1.9 °F -4.0 °F 53% 30.21 in 10.0 mi NW 8.1 mph - N/A   Clear
1:52 AM 9.0 °F -3.2 °F -5.1 °F 53% 30.23 in 10.0 mi NW 8.1 mph - N/A   Clear
2:52 AM 8.1 °F -2.0 °F -6.0 °F 53% 30.23 in 10.0 mi NNW 5.8 mph - N/A   Clear
3:52 AM 8.1 °F -2.0 °F -7.1 °F 50% 30.23 in 10.0 mi NNW 5.8 mph - N/A   Scattered Clouds
4:52 AM 7.0 °F -3.3 °F -6.0 °F 55% 30.24 in 10.0 mi NNW 5.8 mph - N/A   Overcast
5:52 AM 7.0 °F -1.7 °F -6.0 °F 55% 30.27 in 10.0 mi North 4.6 mph - N/A   Overcast
6:52 AM 7.0 °F -1.7 °F -6.0 °F 55% 30.29 in 10.0 mi North 4.6 mph - N/A   Overcast
7:52 AM 7.0 °F -1.7 °F -6.0 °F 55% 30.28 in 10.0 mi North 4.6 mph - N/A   Overcast
8:52 AM 7.0 °F 0.1 °F -6.0 °F 55% 30.28 in 10.0 mi NNW 3.5 mph - N/A   Overcast
9:52 AM 8.1 °F 1.4 °F -6.0 °F 53% 30.31 in 10.0 mi West 3.5 mph - N/A   Overcast
10:52 AM 10.0 °F - -2.9 °F 56% 30.31 in 8.0 mi Calm Calm - 0.00 in Snow Light Snow
11:37 AM 10.4 °F 2.2 °F -0.4 °F 62% 30.16 in 2.5 mi North 4.6 mph - 0.00 in Snow Light Snow
11:52 AM 12.0 °F 5.9 °F 1.0 °F 61% 30.29 in 1.8 mi North 3.5 mph - 0.00 in Snow Light Snow
11:58 AM 12.2 °F - -0.4 °F 57% 30.16 in 3.0 mi Calm Calm - 0.00 in Snow Light Snow
12:06 PM 12.2 °F - -0.4 °F 57% 30.15 in 4.0 mi Calm Calm - 0.00 in Snow Light Snow
12:43 PM 12.2 °F - 1.4 °F 62% 30.13 in 2.5 mi Calm Calm - 0.00 in Snow Light Snow
12:50 PM 14.0 °F - 1.4 °F 57% 30.12 in 4.0 mi Calm Calm - 0.00 in Snow Light Snow
12:52 PM 14.0 °F - 1.0 °F 56% 30.26 in 4.0 mi Calm Calm - 0.00 in Snow Light Snow
1:22 PM 12.2 °F - 1.4 °F 62% 30.11 in 4.0 mi Calm Calm - 0.00 in Snow Light Snow
1:30 PM 14.0 °F - 3.2 °F 62% 30.10 in 2.5 mi Calm Calm - 0.00 in Snow Light Snow
1:49 PM 14.0 °F - 3.2 °F 62% 30.10 in 3.0 mi Calm Calm - 0.00 in Snow Light Snow
1:52 PM 14.0 °F - 3.0 °F 62% 30.24 in 3.0 mi Calm Calm - 0.00 in Snow Light Snow
2:24 PM 14.0 °F - 3.2 °F 62% 30.09 in 2.0 mi Calm Calm - 0.00 in Snow Light Snow
2:52 PM 14.0 °F - 3.9 °F 64% 30.22 in 2.0 mi Calm Calm - 0.00 in Snow Light Snow
3:08 PM 15.8 °F - 3.2 °F 58% 30.07 in 4.0 mi Calm Calm - 0.00 in Snow Light Snow
3:50 PM 15.8 °F - 3.2 °F 58% 30.07 in 6.0 mi Calm Calm - 0.00 in Snow Light Snow
3:52 PM 15.1 °F - 3.0 °F 59% 30.21 in 5.0 mi Calm Calm - 0.00 in Snow Light Snow
4:15 PM 15.8 °F - 3.2 °F 58% 30.07 in 2.5 mi Calm Calm - 0.00 in Snow Light Snow
4:52 PM 15.1 °F 9.4 °F 5.0 °F 64% 30.21 in 3.0 mi North 3.5 mph - 0.00 in Snow Light Snow
5:14 PM 14.0 °F - 5.0 °F 67% 30.07 in 2.5 mi Calm Calm - 0.00 in Snow Light Snow
5:42 PM 12.2 °F 2.9 °F 5.0 °F 73% 30.07 in 1.0 mi WNW 5.8 mph - 0.00 in Snow Light Snow
5:48 PM 12.2 °F 2.9 °F 5.0 °F 73% 30.07 in 0.8 mi WNW 5.8 mph - 0.00 in Snow Light Snow
5:52 PM 12.9 °F 6.9 °F 5.0 °F 71% 30.22 in 0.8 mi NW 3.5 mph - 0.00 in Snow Light Snow
5:59 PM 12.2 °F 4.3 °F 5.0 °F 73% 30.07 in 1.2 mi WNW 4.6 mph - 0.01 in Snow Light Snow
6:17 PM 12.2 °F 6.1 °F 6.8 °F 79% 30.07 in 2.0 mi WNW 3.5 mph - 0.01 in Snow Light Snow
6:52 PM 12.0 °F 5.9 °F 5.0 °F 73% 30.23 in 1.8 mi WNW 3.5 mph - 0.01 in Snow Light Snow
7:03 PM 12.2 °F 6.1 °F 5.0 °F 73% 30.08 in 1.5 mi NW 3.5 mph - 0.00 in Snow Light Snow
7:50 PM 12.2 °F - 5.0 °F 73% 30.06 in 1.8 mi Calm Calm - 0.02 in Snow Light Snow
7:52 PM 12.0 °F - 5.0 °F 73% 30.21 in 1.8 mi Calm Calm - 0.02 in Snow Light Snow
7:59 PM 12.2 °F 6.1 °F 5.0 °F 73% 30.06 in 2.5 mi NNW 3.5 mph - 0.00 in Snow Light Snow
8:13 PM 10.4 °F 2.2 °F 5.0 °F 79% 30.06 in 3.0 mi West 4.6 mph - 0.00 in Snow Light Snow
8:20 PM 10.4 °F 4.0 °F 5.0 °F 79% 30.05 in 2.5 mi WNW 3.5 mph - 0.00 in Snow Light Snow
8:52 PM 10.9 °F 4.7 °F 5.0 °F 77% 30.22 in 2.0 mi NW 3.5 mph - 0.00 in Snow Light Snow
9:31 PM 10.4 °F 0.8 °F 3.2 °F 73% 30.06 in 4.0 mi WNW 5.8 mph - 0.00 in Snow Light Snow
9:52 PM 10.0 °F 0.4 °F 3.0 °F 73% 30.22 in 4.0 mi WNW 5.8 mph - 0.00 in Snow Light Snow
10:34 PM 10.4 °F -1.5 °F 3.2 °F 73% 30.06 in 3.0 mi NW 8.1 mph - 0.00 in Snow Light Snow
10:48 PM 8.6 °F -2.6 °F 1.4 °F 73% 30.06 in 8.0 mi WNW 6.9 mph - 0.00 in Snow Light Snow
10:52 PM 9.0 °F -4.2 °F 1.9 °F 73% 30.21 in 8.0 mi WNW 9.2 mph - 0.00 in   Overcast
11:52 PM 8.1 °F -0.5 °F -0.0 °F 70% 30.22 in 9.0 mi Variable 4.6 mph - 0.00 in   Overcast